Location: S�tio Afonso Gruber
(26.1760°S, 49.5250°W)
Time: 13:58:03
(UTC+00:00)

Hubble Space Telescope - Visible Passes

Search period start: 25 February 2021 00:00
Search period end: 07 March 2021 00:00
Orbit: 536 x 539 km, 28.5° (Epoch: 25 February)

Date Brightness Start Highest point End Pass type
(mag) Time Alt. Az. Time Alt. Az. Time Alt. Az.
04 Mar 3.4 08:30:59 10° N 08:32:35 12° NNE 08:34:10 10° NE visible
05 Mar 3.2 08:19:06 10° N 08:21:38 16° NNE 08:24:12 10° ENE visible
06 Mar 2.8 08:07:57 12° NNW 08:10:42 20° NNE 08:13:49 10° ENE visible
